| time (UTC) | temp F | wind direction | speed MPH | gust MPH | rain 1hr in | rain 24hr in | rain mn in | humidity % | barometer mb |
| 20260509043527 | 71 | 184 | 6.0 | 14.0 | 0.00 | 0.05 | 0.05 | 78 | 1010.7 |
| 20260509043043 | 72 | 163 | 6.0 | 10.0 | 0.00 | 0.05 | 0.05 | 77 | 1010.6 |
| 20260509042528 | 72 | 161 | 2.0 | 6.0 | 0.00 | 0.05 | 0.05 | 77 | 1010.9 |
| 20260509042029 | 72 | 148 | 2.0 | 6.0 | 0.00 | 0.05 | 0.05 | 76 | 1011.0 |
| 20260509041542 | 72 | 171 | 0.0 | 8.0 | 0.00 | 0.05 | 0.05 | 76 | 1010.9 |
| 20260509041031 | 72 | 86 | 2.0 | 11.0 | 0.00 | 0.05 | 0.05 | 76 | 1010.9 |
| 20260509040528 | 72 | 162 | 4.0 | 11.0 | 0.00 | 0.05 | 0.05 | 77 | 1010.6 |
| 20260509040046 | 72 | 184 | 4.0 | 11.0 | 0.00 | 0.05 | 0.05 | 76 | 1010.7 |
| 20260509035528 | 72 | 146 | 1.0 | 6.0 | 0.00 | 0.05 | 0.05 | 76 | 1010.9 |
| 20260509035028 | 73 | 111 | 1.0 | 6.0 | 0.00 | 0.05 | 0.05 | 76 | 1010.9 |
| 20260509034541 | 72 | 116 | 0.0 | 2.0 | 0.00 | 0.05 | 0.05 | 76 | 1011.1 |
| 20260509034028 | 72 | 116 | 0.0 | 2.0 | 0.00 | 0.05 | 0.05 | 77 | 1011.5 |
| 20260509033530 | 72 | 116 | 0.0 | 2.0 | 0.00 | 0.05 | 0.05 | 76 | 1011.7 |
| 20260509033036 | 72 | 0 | 0.0 | 2.0 | 0.00 | 0.05 | 0.05 | 76 | 1011.6 |
| 20260509032528 | 72 | 0 | 0.0 | 2.0 | 0.00 | 0.05 | 0.05 | 76 | 1011.3 |
| 20260509032029 | 72 | 0 | 0.0 | 3.0 | 0.00 | 0.05 | 0.05 | 77 | 1011.2 |
| 20260509031559 | 72 | 0 | 0.0 | 3.0 | 0.00 | 0.05 | 0.05 | 77 | 1011.1 |
| 20260509031028 | 72 | 116 | 0.0 | 5.0 | 0.00 | 0.05 | 0.05 | 77 | 1011.2 |
| 20260509030528 | 72 | 0 | 0.0 | 5.0 | 0.00 | 0.05 | 0.05 | 77 | 1011.0 |
| 20260509030042 | 72 | 71 | 1.0 | 5.0 | 0.00 | 0.05 | 0.05 | 77 | 1011.1 |
| 20260509025526 | 72 | 111 | 1.0 | 5.0 | 0.00 | 0.05 | 0.05 | 77 | 1011.1 |
| 20260509025028 | 72 | 148 | 0.0 | 9.0 | 0.00 | 0.05 | 0.05 | 77 | 1010.8 |
| 20260509024538 | 72 | 148 | 1.0 | 11.0 | 0.00 | 0.05 | 0.05 | 77 | 1010.7 |
| 20260509024032 | 72 | 111 | 3.0 | 12.0 | 0.00 | 0.05 | 0.05 | 77 | 1010.5 |
| 20260509023527 | 72 | 127 | 5.0 | 12.0 | 0.00 | 0.05 | 0.05 | 77 | 1010.3 |
| 20260509023039 | 72 | 155 | 3.0 | 12.0 | 0.00 | 0.05 | 0.05 | 77 | 1010.1 |
| 20260509022532 | 72 | 116 | 6.0 | 12.0 | 0.00 | 0.05 | 0.05 | 77 | 1009.9 |
| 20260509022029 | 72 | 158 | 4.0 | 12.0 | 0.00 | 0.05 | 0.05 | 77 | 1010.0 |
| 20260509021542 | 72 | 108 | 4.0 | 11.0 | 0.00 | 0.05 | 0.05 | 76 | 1009.6 |
| 20260509021027 | 72 | 163 | 3.0 | 9.0 | 0.00 | 0.05 | 0.05 | 76 | 1009.6 |
| 20260509020527 | 72 | 167 | 3.0 | 11.0 | 0.00 | 0.05 | 0.05 | 76 | 1009.8 |
| 20260509020045 | 72 | 148 | 5.0 | 12.0 | 0.00 | 0.05 | 0.05 | 76 | 1009.9 |
| 20260509015528 | 72 | 138 | 4.0 | 12.0 | 0.00 | 0.05 | 0.05 | 75 | 1009.7 |
| 20260509015030 | 72 | 173 | 4.0 | 11.0 | 0.00 | 0.05 | 0.05 | 75 | 1009.7 |
| 20260509014544 | 72 | 164 | 5.0 | 11.0 | 0.00 | 0.05 | 0.05 | 75 | 1009.7 |
| 20260509014028 | 72 | 164 | 5.0 | 11.0 | 0.00 | 0.05 | 0.05 | 75 | 1009.4 |
| 20260509013527 | 72 | 193 | 4.0 | 10.0 | 0.00 | 0.05 | 0.05 | 75 | 1009.5 |
| 20260509013043 | 72 | 146 | 4.0 | 10.0 | 0.00 | 0.05 | 0.05 | 75 | 1009.7 |
| 20260509012529 | 72 | 160 | 4.0 | 8.0 | 0.00 | 0.05 | 0.05 | 74 | 1009.6 |
| 20260509012029 | 72 | 167 | 2.0 | 8.0 | 0.00 | 0.05 | 0.05 | 74 | 1009.6 |
| 20260509011537 | 72 | 163 | 4.0 | 9.0 | 0.00 | 0.05 | 0.05 | 74 | 1009.6 |
| 20260509011029 | 72 | 183 | 4.0 | 11.0 | 0.00 | 0.05 | 0.05 | 74 | 1009.6 |
| 20260509010528 | 72 | 172 | 4.0 | 14.0 | 0.00 | 0.05 | 0.05 | 74 | 1009.6 |
| 20260509010043 | 73 | 196 | 6.0 | 14.0 | 0.00 | 0.05 | 0.05 | 73 | 1009.6 |
| 20260509005530 | 73 | 192 | 3.0 | 15.0 | 0.00 | 0.05 | 0.05 | 73 | 1009.4 |
| 20260509005028 | 73 | 166 | 5.0 | 15.0 | 0.00 | 0.05 | 0.05 | 73 | 1009.3 |
| 20260509004543 | 73 | 182 | 6.0 | 13.0 | 0.00 | 0.05 | 0.05 | 72 | 1009.2 |
| 20260509004028 | 73 | 166 | 5.0 | 12.0 | 0.00 | 0.05 | 0.05 | 72 | 1009.1 |
| 20260509003530 | 73 | 162 | 6.0 | 14.0 | 0.00 | 0.05 | 0.05 | 72 | 1008.9 |
| 20260509003046 | 73 | 165 | 7.0 | 14.0 | 0.00 | 0.05 | 0.05 | 72 | 1008.8 |
| 20260509002528 | 73 | 177 | 6.0 | 15.0 | 0.00 | 0.05 | 0.05 | 72 | 1008.8 |
| 20260509002029 | 73 | 136 | 7.0 | 15.0 | 0.00 | 0.05 | 0.05 | 71 | 1008.9 |
| 20260509001542 | 74 | 161 | 6.0 | 15.0 | 0.00 | 0.05 | 0.05 | 71 | 1008.9 |
| 20260509001029 | 74 | 149 | 6.0 | 16.0 | 0.00 | 0.05 | 0.05 | 71 | 1008.8 |
| 20260509000529 | 74 | 170 | 9.0 | 16.0 | 0.00 | 0.05 | 0.05 | 71 | 1008.9 |
| 20260509000044 | 74 | 183 | 7.0 | 14.0 | 0.00 | 0.05 | 0.05 | 71 | 1008.9 |
| 20260508235528 | 74 | 111 | 6.0 | 14.0 | 0.00 | 0.05 | 0.05 | 71 | 1009.1 |
| 20260508235028 | 74 | 132 | 6.0 | 14.0 | 0.00 | 0.05 | 0.05 | 71 | 1009.2 |
| 20260508234549 | 74 | 151 | 7.0 | 14.0 | 0.00 | 0.05 | 0.05 | 70 | 1009.3 |
| 20260508234027 | 74 | 185 | 4.0 | 11.0 | 0.00 | 0.05 | 0.05 | 69 | 1009.3 |
| 20260508233528 | 74 | 177 | 2.0 | 12.0 | 0.00 | 0.05 | 0.05 | 69 | 1009.3 |
| 20260508233043 | 74 | 192 | 7.0 | 12.0 | 0.00 | 0.05 | 0.05 | 68 | 1009.3 |
| 20260508232528 | 75 | 183 | 4.0 | 11.0 | 0.00 | 0.05 | 0.05 | 67 | 1009.4 |
| 20260508232026 | 75 | 167 | 3.0 | 11.0 | 0.00 | 0.05 | 0.05 | 68 | 1009.4 |
| 20260508231542 | 75 | 169 | 4.0 | 11.0 | 0.00 | 0.05 | 0.05 | 68 | 1009.5 |
| 20260508231029 | 75 | 167 | 4.0 | 12.0 | 0.00 | 0.05 | 0.05 | 68 | 1009.4 |
| 20260508230528 | 74 | 141 | 6.0 | 13.0 | 0.00 | 0.05 | 0.05 | 68 | 1009.5 |
| 20260508230100 | 74 | 132 | 6.0 | 13.0 | 0.00 | 0.05 | 0.05 | 68 | 1009.5 |
| 20260508225531 | 75 | 167 | 6.0 | 14.0 | 0.00 | 0.05 | 0.05 | 67 | 1009.5 |
| 20260508225028 | 75 | 168 | 6.0 | 15.0 | 0.00 | 0.05 | 0.05 | 67 | 1009.5 |
| 20260508224548 | 75 | 182 | 6.0 | 15.0 | 0.00 | 0.05 | 0.05 | 67 | 1009.5 |
| 20260508224028 | 75 | 117 | 3.0 | 11.0 | 0.00 | 0.05 | 0.05 | 67 | 1009.5 |
| 20260508223527 | 75 | 182 | 4.0 | 11.0 | 0.00 | 0.05 | 0.05 | 67 | 1009.5 |
| 20260508223042 | 76 | 151 | 4.0 | 17.0 | 0.00 | 0.05 | 0.05 | 67 | 1009.6 |
| 20260508222527 | 76 | 181 | 5.0 | 17.0 | 0.00 | 0.05 | 0.05 | 66 | 1009.5 |
| 20260508222028 | 75 | 186 | 9.0 | 16.0 | 0.00 | 0.05 | 0.05 | 66 | 1009.4 |
| 20260508221542 | 76 | 176 | 6.0 | 13.0 | 0.00 | 0.05 | 0.05 | 66 | 1009.4 |
| 20260508221028 | 76 | 193 | 6.0 | 13.0 | 0.00 | 0.05 | 0.05 | 64 | 1009.3 |
| 20260508220529 | 76 | 156 | 5.0 | 13.0 | 0.00 | 0.05 | 0.05 | 64 | 1009.4 |
| 20260508220111 | 77 | 195 | 3.0 | 14.0 | 0.00 | 0.05 | 0.05 | 63 | 1009.4 |
| 20260508215528 | 77 | 175 | 6.0 | 15.0 | 0.00 | 0.05 | 0.05 | 64 | 1009.3 |
| 20260508215028 | 77 | 165 | 7.0 | 15.0 | 0.00 | 0.05 | 0.05 | 63 | 1009.3 |
| 20260508214542 | 77 | 188 | 3.0 | 14.0 | 0.00 | 0.05 | 0.05 | 64 | 1009.2 |
| 20260508214030 | 77 | 153 | 5.0 | 14.0 | 0.00 | 0.05 | 0.05 | 64 | 1009.4 |
| 20260508213528 | 77 | 144 | 7.0 | 13.0 | 0.00 | 0.05 | 0.05 | 62 | 1009.5 |
| 20260508213040 | 77 | 0 | 5.0 | 11.0 | 0.00 | 0.05 | 0.05 | 62 | 1009.5 |
| 20260508212528 | 78 | 186 | 4.0 | 10.0 | 0.00 | 0.05 | 0.05 | 61 | 1009.5 |
| 20260508212027 | 77 | 155 | 4.0 | 11.0 | 0.00 | 0.05 | 0.05 | 63 | 1009.5 |
| 20260508211547 | 76 | 157 | 4.0 | 12.0 | 0.00 | 0.05 | 0.05 | 64 | 1009.6 |
| 20260508211028 | 76 | 126 | 3.0 | 16.0 | 0.00 | 0.05 | 0.05 | 65 | 1009.7 |
| 20260508210528 | 76 | 165 | 8.0 | 16.0 | 0.00 | 0.05 | 0.05 | 64 | 1009.9 |
| 20260508210044 | 75 | 195 | 4.0 | 13.0 | 0.00 | 0.05 | 0.05 | 65 | 1010.2 |
| 20260508205527 | 74 | 198 | 6.0 | 15.0 | 0.00 | 0.05 | 0.05 | 66 | 1010.4 |
| 20260508205028 | 74 | 182 | 7.0 | 15.0 | 0.00 | 0.05 | 0.05 | 66 | 1010.7 |
| 20260508204544 | 74 | 186 | 7.0 | 16.0 | 0.00 | 0.05 | 0.05 | 66 | 1011.0 |
| 20260508204031 | 74 | 184 | 7.0 | 16.0 | 0.00 | 0.05 | 0.05 | 66 | 1011.3 |
| 20260508203528 | 74 | 172 | 9.0 | 14.0 | 0.00 | 0.05 | 0.05 | 65 | 1011.5 |
| 20260508203046 | 74 | 186 | 7.0 | 13.0 | 0.00 | 0.05 | 0.05 | 66 | 1011.6 |
| 20260508202528 | 75 | 187 | 4.0 | 12.0 | 0.00 | 0.05 | 0.05 | 65 | 1011.6 |
| 20260508202027 | 75 | 188 | 6.0 | 14.0 | 0.00 | 0.05 | 0.05 | 65 | 1011.5 |
| 20260508201537 | 75 | 202 | 4.0 | 14.0 | 0.00 | 0.05 | 0.05 | 65 | 1011.5 |
| 20260508201028 | 75 | 169 | 4.0 | 12.0 | 0.00 | 0.05 | 0.05 | 65 | 1011.6 |
| 20260508200526 | 75 | 175 | 6.0 | 12.0 | 0.00 | 0.05 | 0.05 | 64 | 1011.6 |
| 20260508200035 | 75 | 182 | 5.0 | 10.0 | 0.00 | 0.05 | 0.05 | 64 | 1011.7 |
| 20260508195529 | 76 | 183 | 2.0 | 9.0 | 0.00 | 0.05 | 0.05 | 65 | 1011.6 |
| 20260508195028 | 75 | 164 | 3.0 | 14.0 | 0.00 | 0.05 | 0.05 | 64 | 1011.6 |
| 20260508194541 | 75 | 175 | 7.0 | 14.0 | 0.00 | 0.05 | 0.05 | 64 | 1011.6 |
| 20260508194029 | 75 | 165 | 5.0 | 14.0 | 0.00 | 0.05 | 0.05 | 64 | 1011.7 |
| 20260508193528 | 76 | 189 | 5.0 | 11.0 | 0.00 | 0.05 | 0.05 | 63 | 1011.6 |
| 20260508193048 | 76 | 205 | 5.0 | 11.0 | 0.00 | 0.05 | 0.05 | 62 | 1011.7 |
| 20260508192528 | 77 | 225 | 5.0 | 13.0 | 0.00 | 0.05 | 0.05 | 62 | 1011.7 |
| 20260508192027 | 77 | 222 | 7.0 | 13.0 | 0.00 | 0.05 | 0.05 | 61 | 1011.7 |
| 20260508191539 | 77 | 188 | 3.0 | 9.0 | 0.00 | 0.05 | 0.05 | 61 | 1011.7 |
| 20260508191029 | 77 | 171 | 3.0 | 9.0 | 0.00 | 0.05 | 0.05 | 61 | 1011.7 |
| 20260508190528 | 77 | 194 | 3.0 | 9.0 | 0.00 | 0.05 | 0.05 | 61 | 1011.8 |
| 20260508190043 | 77 | 143 | 3.0 | 11.0 | 0.00 | 0.05 | 0.05 | 59 | 1011.8 |
| 20260508185532 | 77 | 151 | 2.0 | 12.0 | 0.00 | 0.05 | 0.05 | 61 | 1011.9 |
| 20260508185028 | 77 | 162 | 3.0 | 12.0 | 0.00 | 0.05 | 0.05 | 62 | 1011.8 |
| 20260508184548 | 76 | 187 | 4.0 | 13.0 | 0.00 | 0.05 | 0.05 | 60 | 1011.9 |
| 20260508184029 | 76 | 163 | 4.0 | 13.0 | 0.00 | 0.05 | 0.05 | 60 | 1012.0 |
| 20260508183527 | 77 | 140 | 1.0 | 9.0 | 0.00 | 0.05 | 0.05 | 61 | 1012.0 |
| 20260508183045 | 76 | 198 | 2.0 | 12.0 | 0.00 | 0.05 | 0.05 | 60 | 1012.0 |
| 20260508182531 | 75 | 0 | 3.0 | 12.0 | 0.00 | 0.05 | 0.05 | 62 | 1012.1 |
| 20260508182026 | 75 | 182 | 3.0 | 12.0 | 0.00 | 0.05 | 0.05 | 62 | 1012.3 |
| 20260508181603 | 75 | 149 | 4.0 | 12.0 | 0.00 | 0.05 | 0.05 | 61 | 1012.5 |
| 20260508181026 | 75 | 186 | 3.0 | 11.0 | 0.00 | 0.05 | 0.05 | 60 | 1012.6 |
| 20260508180528 | 75 | 0 | 3.0 | 12.0 | 0.00 | 0.05 | 0.05 | 60 | 1012.8 |
| 20260508180048 | 75 | 0 | 3.0 | 12.0 | 0.00 | 0.05 | 0.05 | 61 | 1012.9 |
| 20260508175528 | 74 | 201 | 4.0 | 11.0 | 0.00 | 0.05 | 0.05 | 61 | 1013.0 |
| 20260508175027 | 74 | 34 | 2.0 | 12.0 | 0.00 | 0.05 | 0.05 | 64 | 1013.0 |
| 20260508174554 | 74 | 96 | 3.0 | 12.0 | 0.00 | 0.05 | 0.05 | 63 | 1012.9 |
| 20260508174027 | 73 | 144 | 3.0 | 8.0 | 0.00 | 0.05 | 0.05 | 63 | 1013.1 |
| 20260508173526 | 73 | 182 | 4.0 | 8.0 | 0.00 | 0.05 | 0.05 | 63 | 1013.1 |
| 20260508173043 | 73 | 0 | 1.0 | 10.0 | 0.00 | 0.05 | 0.05 | 64 | 1013.1 |
| 20260508172529 | 72 | 63 | 5.0 | 11.0 | 0.00 | 0.05 | 0.05 | 64 | 1013.2 |
| 20260508172028 | 72 | 140 | 5.0 | 11.0 | 0.00 | 0.05 | 0.05 | 64 | 1013.3 |
| 20260508171545 | 72 | 180 | 4.0 | 11.0 | 0.00 | 0.05 | 0.05 | 65 | 1013.5 |
| 20260508171026 | 72 | 118 | 5.0 | 11.0 | 0.00 | 0.05 | 0.05 | 65 | 1013.5 |
| 20260508170530 | 71 | 122 | 3.0 | 10.0 | 0.00 | 0.05 | 0.05 | 66 | 1013.7 |
| 20260508170043 | 71 | 169 | 6.0 | 12.0 | 0.00 | 0.05 | 0.05 | 65 | 1013.9 |
| 20260508165528 | 71 | 200 | 5.0 | 12.0 | 0.00 | 0.05 | 0.05 | 66 | 1014.0 |
| 20260508165028 | 71 | 138 | 6.0 | 11.0 | 0.00 | 0.05 | 0.05 | 65 | 1014.1 |
| 20260508164543 | 70 | 123 | 6.0 | 11.0 | 0.00 | 0.05 | 0.05 | 65 | 1014.1 |
| 20260508164026 | 70 | 180 | 3.0 | 11.0 | 0.00 | 0.05 | 0.05 | 67 | 1014.3 |
| 20260508163528 | 69 | 185 | 5.0 | 11.0 | 0.00 | 0.05 | 0.05 | 67 | 1014.4 |
| 20260508163039 | 69 | 150 | 2.0 | 11.0 | 0.00 | 0.05 | 0.05 | 67 | 1014.6 |
| 20260508162528 | 69 | 173 | 2.0 | 11.0 | 0.00 | 0.05 | 0.05 | 69 | 1014.8 |
| 20260508162030 | 68 | 105 | 4.0 | 12.0 | 0.00 | 0.05 | 0.05 | 68 | 1014.7 |
| 20260508161543 | 68 | 193 | 4.0 | 14.0 | 0.00 | 0.05 | 0.05 | 69 | 1014.8 |
| 20260508161029 | 67 | 156 | 7.0 | 14.0 | 0.00 | 0.05 | 0.05 | 68 | 1014.9 |
| 20260508160528 | 67 | 164 | 4.0 | 12.0 | 0.00 | 0.05 | 0.05 | 69 | 1014.9 |
| 20260508160044 | 67 | 179 | 4.0 | 12.0 | 0.00 | 0.05 | 0.05 | 69 | 1014.9 |
| 20260508155532 | 67 | 153 | 3.0 | 11.0 | 0.00 | 0.05 | 0.05 | 70 | 1014.9 |
| 20260508155031 | 67 | 163 | 5.0 | 11.0 | 0.00 | 0.05 | 0.05 | 69 | 1014.9 |
| 20260508154545 | 67 | 0 | 2.0 | 8.0 | 0.00 | 0.05 | 0.05 | 71 | 1015.0 |
| 20260508154031 | 67 | 78 | 2.0 | 10.0 | 0.00 | 0.05 | 0.05 | 71 | 1015.2 |
| 20260508153531 | 66 | 177 | 3.0 | 10.0 | 0.00 | 0.05 | 0.05 | 71 | 1015.0 |
| 20260508153043 | 66 | 136 | 5.0 | 10.0 | 0.00 | 0.05 | 0.05 | 70 | 1015.2 |
| 20260508152528 | 66 | 160 | 4.0 | 10.0 | 0.00 | 0.05 | 0.05 | 70 | 1015.2 |
| 20260508152028 | 66 | 178 | 5.0 | 12.0 | 0.00 | 0.05 | 0.05 | 71 | 1015.0 |
| 20260508151542 | 66 | 178 | 7.0 | 12.0 | 0.00 | 0.05 | 0.05 | 70 | 1015.1 |
| 20260508151027 | 66 | 160 | 3.0 | 9.0 | 0.00 | 0.05 | 0.05 | 72 | 1015.1 |
| 20260508150527 | 66 | 155 | 4.0 | 9.0 | 0.00 | 0.05 | 0.05 | 72 | 1015.1 |
| 20260508150042 | 66 | 171 | 3.0 | 8.0 | 0.00 | 0.05 | 0.05 | 73 | 1015.1 |
| 20260508145528 | 65 | 171 | 1.0 | 10.0 | 0.00 | 0.05 | 0.05 | 74 | 1015.1 |
| 20260508145027 | 65 | 106 | 4.0 | 10.0 | 0.00 | 0.05 | 0.05 | 73 | 1015.1 |
| 20260508144543 | 65 | 157 | 3.0 | 8.0 | 0.00 | 0.05 | 0.05 | 75 | 1015.2 |
| 20260508144028 | 65 | 184 | 3.0 | 12.0 | 0.00 | 0.05 | 0.05 | 76 | 1015.1 |
| 20260508143529 | 64 | 158 | 3.0 | 12.0 | 0.00 | 0.05 | 0.05 | 76 | 1015.1 |
| 20260508143046 | 64 | 171 | 6.0 | 10.0 | 0.00 | 0.05 | 0.05 | 76 | 1015.2 |
| 20260508142530 | 64 | 173 | 3.0 | 9.0 | 0.00 | 0.05 | 0.05 | 77 | 1015.3 |
| 20260508142030 | 64 | 144 | 2.0 | 8.0 | 0.00 | 0.05 | 0.05 | 78 | 1015.3 |
| 20260508141553 | 64 | 138 | 3.0 | 8.0 | 0.00 | 0.05 | 0.05 | 79 | 1015.3 |
| 20260508141026 | 63 | 138 | 2.0 | 7.0 | 0.00 | 0.05 | 0.05 | 82 | 1015.3 |
| 20260508140529 | 63 | 0 | 2.0 | 7.0 | 0.00 | 0.05 | 0.05 | 82 | 1015.3 |
| 20260508140042 | 63 | 0 | 1.0 | 5.0 | 0.00 | 0.05 | 0.05 | 82 | 1015.4 |
| 20260508135530 | 63 | 0 | 1.0 | 5.0 | 0.00 | 0.05 | 0.05 | 83 | 1015.4 |
| 20260508135027 | 63 | 102 | 1.0 | 5.0 | 0.00 | 0.05 | 0.05 | 84 | 1015.1 |
| 20260508134555 | 62 | 135 | 1.0 | 5.0 | 0.00 | 0.05 | 0.05 | 85 | 1015.1 |
| 20260508134027 | 62 | 0 | 1.0 | 8.0 | 0.00 | 0.05 | 0.05 | 85 | 1015.2 |
| 20260508133529 | 61 | 136 | 2.0 | 8.0 | 0.00 | 0.05 | 0.05 | 85 | 1015.2 |
| 20260508133043 | 61 | 0 | 0.0 | 8.0 | 0.00 | 0.05 | 0.05 | 86 | 1015.2 |
| 20260508132532 | 61 | 170 | 3.0 | 8.0 | 0.00 | 0.05 | 0.05 | 87 | 1015.2 |
| 20260508132029 | 61 | 141 | 2.0 | 7.0 | 0.00 | 0.05 | 0.05 | 88 | 1015.2 |
| 20260508131541 | 60 | 158 | 2.0 | 5.0 | 0.00 | 0.05 | 0.05 | 88 | 1015.4 |
| 20260508131028 | 60 | 122 | 1.0 | 5.0 | 0.00 | 0.05 | 0.05 | 88 | 1015.3 |
| 20260508130528 | 60 | 0 | 0.0 | 3.0 | 0.01 | 0.05 | 0.05 | 88 | 1015.3 |
| 20260508130040 | 60 | 81 | 0.0 | 4.0 | 0.01 | 0.05 | 0.05 | 88 | 1015.3 |
| 20260508125528 | 60 | 0 | 0.0 | 4.0 | 0.01 | 0.05 | 0.05 | 88 | 1015.3 |
| 20260508125027 | 60 | 159 | 0.0 | 6.0 | 0.01 | 0.05 | 0.05 | 87 | 1015.6 |
| 20260508124542 | 60 | 159 | 2.0 | 6.0 | 0.01 | 0.05 | 0.05 | 87 | 1015.7 |
| 20260508124027 | 60 | 159 | 2.0 | 6.0 | 0.01 | 0.05 | 0.05 | 87 | 1015.5 |
| 20260508123528 | 60 | 179 | 1.0 | 4.0 | 0.01 | 0.05 | 0.05 | 86 | 1015.2 |
| 20260508123051 | 60 | 179 | 2.0 | 5.0 | 0.01 | 0.05 | 0.05 | 85 | 1015.9 |
| 20260508122530 | 60 | 179 | 2.0 | 5.0 | 0.01 | 0.05 | 0.05 | 85 | 1016.0 |
| 20260508122028 | 61 | 0 | 2.0 | 8.0 | 0.01 | 0.05 | 0.05 | 85 | 1015.5 |
| 20260508121543 | 60 | 170 | 1.0 | 8.0 | 0.01 | 0.05 | 0.05 | 86 | 1015.5 |
| 20260508121028 | 60 | 130 | 3.0 | 8.0 | 0.00 | 0.04 | 0.04 | 86 | 1015.5 |
| 20260508120528 | 60 | 155 | 4.0 | 10.0 | 0.00 | 0.04 | 0.04 | 87 | 1015.4 |
| 20260508120045 | 60 | 168 | 3.0 | 10.0 | 0.00 | 0.04 | 0.04 | 88 | 1015.5 |
| 20260508115527 | 60 | 115 | 3.0 | 9.0 | 0.00 | 0.04 | 0.04 | 89 | 1015.4 |
| 20260508115025 | 60 | 161 | 3.0 | 9.0 | 0.00 | 0.04 | 0.04 | 90 | 1015.4 |
| 20260508114549 | 60 | 137 | 6.0 | 9.0 | 0.01 | 0.04 | 0.04 | 90 | 1015.8 |
| 20260508114029 | 60 | 156 | 3.0 | 7.0 | 0.01 | 0.04 | 0.04 | 90 | 1015.5 |
| 20260508113527 | 60 | 150 | 3.0 | 7.0 | 0.01 | 0.04 | 0.04 | 91 | 1015.3 |
| 20260508113054 | 61 | 145 | 2.0 | 4.0 | 0.01 | 0.04 | 0.04 | 91 | 1015.4 |
| 20260508112527 | 61 | 0 | 0.0 | 1.0 | 0.01 | 0.04 | 0.04 | 91 | 1015.4 |
| 20260508112026 | 60 | 0 | 0.0 | 4.0 | 0.01 | 0.04 | 0.04 | 91 | 1015.4 |
| 20260508111546 | 60 | 0 | 0.0 | 5.0 | 0.01 | 0.04 | 0.04 | 91 | 1015.4 |
| 20260508111028 | 60 | 0 | 1.0 | 5.0 | 0.01 | 0.04 | 0.04 | 91 | 1014.8 |
| 20260508110528 | 61 | 73 | 1.0 | 5.0 | 0.01 | 0.04 | 0.04 | 91 | 1014.9 |
| 20260508110039 | 60 | 73 | 1.0 | 3.0 | 0.01 | 0.04 | 0.04 | 91 | 1015.3 |
| 20260508105528 | 61 | 0 | 0.0 | 6.0 | 0.01 | 0.04 | 0.04 | 91 | 1015.8 |
| 20260508105027 | 60 | 0 | 2.0 | 6.0 | 0.00 | 0.03 | 0.03 | 90 | 1016.2 |
| 20260508104542 | 60 | 279 | 1.0 | 3.0 | 0.00 | 0.03 | 0.03 | 90 | 1016.2 |
| 20260508104026 | 60 | 0 | 0.0 | 3.0 | 0.00 | 0.03 | 0.03 | 90 | 1015.3 |
| 20260508103528 | 60 | 0 | 1.0 | 6.0 | 0.00 | 0.03 | 0.03 | 90 | 1015.6 |
| 20260508103042 | 60 | 279 | 1.0 | 6.0 | 0.00 | 0.03 | 0.03 | 90 | 1015.5 |
| 20260508102529 | 60 | 232 | 0.0 | 3.0 | 0.00 | 0.03 | 0.03 | 90 | 1015.3 |
| 20260508102028 | 60 | 0 | 0.0 | 3.0 | 0.01 | 0.03 | 0.03 | 90 | 1014.5 |
| 20260508101540 | 60 | 232 | 0.0 | 9.0 | 0.01 | 0.03 | 0.03 | 89 | 1014.5 |
| 20260508101025 | 60 | 232 | 2.0 | 9.0 | 0.01 | 0.03 | 0.03 | 89 | 1015.3 |
| 20260508100528 | 60 | 162 | 4.0 | 9.0 | 0.01 | 0.03 | 0.03 | 89 | 1014.6 |
| 20260508100039 | 61 | 150 | 2.0 | 4.0 | 0.01 | 0.03 | 0.03 | 90 | 1014.3 |
| 20260508095526 | 61 | 157 | 0.0 | 2.0 | 0.01 | 0.03 | 0.03 | 90 | 1014.4 |
| 20260508095032 | 60 | 0 | 0.0 | 3.0 | 0.01 | 0.03 | 0.03 | 90 | 1014.5 |
| 20260508094604 | 61 | 0 | 0.0 | 4.0 | 0.01 | 0.03 | 0.03 | 89 | 1014.4 |
| 20260508094026 | 60 | 157 | 1.0 | 5.0 | 0.01 | 0.03 | 0.03 | 90 | 1014.5 |
| 20260508093528 | 60 | 149 | 1.0 | 5.0 | 0.02 | 0.03 | 0.03 | 89 | 1014.6 |
| 20260508093043 | 61 | 0 | 0.0 | 2.0 | 0.02 | 0.03 | 0.03 | 89 | 1014.5 |
| 20260508092526 | 61 | 0 | 0.0 | 1.0 | 0.02 | 0.03 | 0.03 | 90 | 1014.5 |
| 20260508092028 | 60 | 0 | 0.0 | 2.0 | 0.01 | 0.02 | 0.02 | 89 | 1014.8 |
| 20260508091543 | 60 | 0 | 0.0 | 2.0 | 0.01 | 0.02 | 0.02 | 89 | 1014.6 |
| 20260508091030 | 60 | 0 | 0.0 | 2.0 | 0.01 | 0.02 | 0.02 | 89 | 1014.6 |
| 20260508090528 | 60 | 0 | 0.0 | 2.0 | 0.01 | 0.02 | 0.02 | 89 | 1014.8 |
| 20260508090043 | 60 | 0 | 0.0 | 3.0 | 0.02 | 0.02 | 0.02 | 89 | 1015.0 |
| 20260508085527 | 60 | 0 | 0.0 | 3.0 | 0.02 | 0.02 | 0.02 | 88 | 1014.9 |
| 20260508085027 | 60 | 5 | 2.0 | 3.0 | 0.02 | 0.02 | 0.02 | 87 | 1015.0 |
| 20260508084541 | 60 | 0 | 0.0 | 5.0 | 0.02 | 0.02 | 0.02 | 87 | 1015.4 |
| 20260508084027 | 60 | 0 | 1.0 | 5.0 | 0.02 | 0.02 | 0.02 | 87 | 1015.5 |
| 20260508083527 | 60 | 286 | 2.0 | 7.0 | 0.01 | 0.01 | 0.01 | 86 | 1015.5 |
| 20260508083043 | 61 | 190 | 1.0 | 7.0 | 0.01 | 0.01 | 0.01 | 86 | 1014.9 |
| 20260508082525 | 61 | 130 | 1.0 | 5.0 | 0.01 | 0.01 | 0.01 | 86 | 1014.2 |
| 20260508082028 | 61 | 97 | 1.0 | 5.0 | 0.01 | 0.01 | 0.01 | 86 | 1014.8 |
| 20260508081600 | 61 | 82 | 1.0 | 4.0 | 0.01 | 0.01 | 0.01 | 85 | 1015.1 |
| 20260508081029 | 61 | 82 | 0.0 | 3.0 | 0.01 | 0.01 | 0.01 | 83 | 1015.9 |
| 20260508080528 | 62 | 0 | 0.0 | 4.0 | 0.01 | 0.01 | 0.01 | 80 | 1015.7 |
| 20260508080039 | 63 | 82 | 1.0 | 4.0 | 0.00 | 0.00 | 0.00 | 76 | 1015.5 |
| 20260508075526 | 63 | 128 | 1.0 | 3.0 | 0.00 | 0.00 | 0.00 | 73 | 1015.7 |
| 20260508075027 | 63 | 0 | 0.0 | 4.0 | 0.00 | 0.00 | 0.00 | 72 | 1016.5 |
| 20260508074542 | 63 | 163 | 1.0 | 4.0 | 0.00 | 0.00 | 0.00 | 72 | 1016.9 |
| 20260508074028 | 63 | 163 | 0.0 | 2.0 | 0.00 | 0.00 | 0.00 | 71 | 1016.7 |
| 20260508073528 | 63 | 0 | 1.0 | 2.0 | 0.00 | 0.00 | 0.00 | 71 | 1016.6 |
| 20260508073044 | 63 | 0 | 0.0 | 2.0 | 0.00 | 0.00 | 0.00 | 71 | 1016.3 |
| 20260508072524 | 63 | 0 | 0.0 | 2.0 | 0.00 | 0.00 | 0.00 | 71 | 1015.9 |
| 20260508072027 | 63 | 0 | 0.0 | 2.0 | 0.00 | 0.00 | 0.00 | 71 | 1015.9 |
| 20260508071546 | 63 | 0 | 0.0 | 4.0 | 0.00 | 0.00 | 0.00 | 71 | 1015.8 |
| 20260508071027 | 63 | 0 | 0.0 | 4.0 | 0.00 | 0.00 | 0.00 | 71 | 1015.9 |
| 20260508070528 | 63 | 0 | 0.0 | 1.0 | 0.00 | 0.00 | 0.00 | 71 | 1016.0 |
| 20260508070044 | 63 | 0 | 0.0 | 2.0 | 0.00 | 0.00 | 0.00 | 71 | 1016.0 |
| 20260508065527 | 63 | 0 | 0.0 | 2.0 | 0.00 | 0.00 | 0.00 | 71 | 1016.1 |
| 20260508065027 | 63 | 0 | 1.0 | 2.0 | 0.00 | 0.00 | 0.00 | 71 | 1015.9 |
| 20260508064543 | 63 | 163 | 0.0 | 2.0 | 0.00 | 0.00 | 0.00 | 70 | 1015.9 |
| 20260508064030 | 63 | 163 | 1.0 | 2.0 | 0.00 | 0.00 | 0.00 | 70 | 1016.2 |
| 20260508063529 | 64 | 0 | 0.0 | 4.0 | 0.00 | 0.00 | 0.00 | 69 | 1016.6 |
| 20260508063053 | 64 | 0 | 0.0 | 5.0 | 0.00 | 0.00 | 0.00 | 68 | 1016.6 |
| 20260508062530 | 64 | 163 | 1.0 | 5.0 | 0.00 | 0.00 | 0.00 | 68 | 1016.6 |
| 20260508062028 | 64 | 163 | 2.0 | 5.0 | 0.00 | 0.00 | 0.00 | 69 | 1016.7 |
| 20260508061548 | 63 | 163 | 2.0 | 4.0 | 0.00 | 0.00 | 0.00 | 70 | 1016.6 |
| 20260508061028 | 63 | 163 | 1.0 | 4.0 | 0.00 | 0.00 | 0.00 | 71 | 1016.7 |
| 20260508060528 | 63 | 163 | 0.0 | 2.0 | 0.00 | 0.00 | 0.00 | 71 | 1016.6 |
| 20260508060040 | 63 | 0 | 0.0 | 0.0 | 0.00 | 0.00 | 0.00 | 71 | 1016.4 |
| 20260508055529 | 64 | 0 | 0.0 | 0.0 | 0.00 | 0.00 | 0.00 | 70 | 1016.4 |
| 20260508055028 | 63 | 0 | 0.0 | 1.0 | 0.00 | 0.00 | 0.00 | 72 | 1016.5 |
| 20260508054543 | 63 | 0 | 0.0 | 1.0 | 0.00 | 0.00 | 0.00 | 71 | 1016.5 |
| 20260508054027 | 63 | 0 | 0.0 | 1.0 | 0.00 | 0.00 | 0.00 | 72 | 1016.5 |
| 20260508053530 | 63 | 0 | 0.0 | 1.0 | 0.00 | 0.00 | 0.00 | 72 | 1016.4 |
| 20260508053043 | 63 | 0 | 0.0 | 1.0 | 0.00 | 0.00 | 0.00 | 72 | 1016.4 |
| 20260508052531 | 63 | 0 | 0.0 | 1.0 | 0.00 | 0.00 | 0.00 | 72 | 1016.5 |
| 20260508052027 | 63 | 0 | 0.0 | 0.0 | 0.00 | 0.00 | 0.00 | 71 | 1016.6 |
| 20260508051542 | 63 | 0 | 0.0 | 1.0 | 0.00 | 0.00 | 0.00 | 70 | 1016.6 |
| 20260508051028 | 63 | 0 | 0.0 | 1.0 | 0.00 | 0.00 | 0.00 | 70 | 1016.6 |
| 20260508050528 | 64 | 0 | 0.0 | 1.0 | 0.00 | 0.00 | 0.00 | 69 | 1016.5 |
| 20260508050042 | 64 | 0 | 0.0 | 2.0 | 0.00 | 0.00 | 0.00 | 69 | 1016.5 |
| 20260508045527 | 64 | 0 | 0.0 | 2.0 | 0.00 | 0.00 | 0.00 | 68 | 1016.4 |
| 20260508045030 | 64 | 0 | 0.0 | 2.0 | 0.00 | 0.00 | 0.00 | 70 | 1016.5 |
| 20260508044540 | 63 | 0 | 0.0 | 2.0 | 0.00 | 0.00 | 0.00 | 69 | 1016.6 |
| 20260508044031 | 63 | 163 | 0.0 | 2.0 | 0.00 | 0.00 | 0.00 | 69 | 1016.6 |